RH
94 98 99 100 100 100 100 100 100 100 100 100 100 100 97 93 93 95 98 95 89 88 90 93 98 99 100 100 99 100 99 99 100 100 100 100 99 95 92 93 95 94 91 90 87 85 83 81 80 78 78 78 75 75 75 74 74 72 75 74 70 66 55 62 85 91 86 88 90 87 83 72 62 50 36 35 40 34 25 26 30 33 40 42 38
96 98 100 100 101 100 100 101 100 100 100 100 101 99 95 96 95 93 98 99 92 88 91 94 97 97 99 100 101 100 100 101 100 100 100 99 97 94 92 92 92 90 86 85 82 80 78 76 75 74 75 75 74 75 73 72 70 69 74 72 62 58 52 58 78 85 80 81 84 85 87 84 79 69 50 36 38 45 37 29 33 36 42 49 48
97 97 100 100 100 100 100 100 100 100 100 100 101 98 96 99 99 97 98 98 95 93 95 99 99 99 99 99 100 99 100 100 99 100 98 95 94 92 90 88 86 84 81 79 77 75 74 72 73 73 75 75 74 73 72 69 65 66 73 69 59 57 56 52 58 71 81 83 78 75 79 82 81 78 72 52 34 39 42 34 35 40 44 51 52
97 97 99 101 100 100 100 100 100 100 100 100 101 99 99 100 99 97 93 91 94 97 99 101 100 100 99 98 99 99 98 97 96 95 94 91 89 87 85 83 81 79 77 75 74 73 71 72 72 74 75 73 72 71 67 63 62 68 74 66 60 66 68 56 46 54 76 84 75 69 72 68 62 67 80 78 50 34 39 42 40 42 48 54 55
95 97 98 99 100 100 100 100 100 100 100 100 100 100 101 99 96 91 86 89 95 98 99 99 100 100 99 100 99 96 94 92 91 89 87 87 84 82 79 78 77 76 75 74 73 72 72 73 73 73 73 70 67 62 58 58 62 70 70 59 53 62 70 63 48 43 53 65 67 70 68 51 41 47 66 84 70 43 41 54 55 52 55 59 60
90 93 97 98 99 100 100 100 101 100 100 100 100 101 98 94 93 88 87 95 97 96 97 98 100 100 99 100 97 93 90 88 87 86 84 83 81 79 77 76 75 74 74 74 73 73 73 73 72 70 67 62 56 51 50 56 61 65 63 55 46 48 62 68 59 45 37 37 40 45 46 44 48 47 48 63 69 54 42 47 56 56 57 59 60
89 92 96 98 98 100 100 100 101 100 100 100 100 101 96 91 94 94 93 99 97 95 98 99 100 100 97 97 94 91 90 88 85 84 82 80 78 77 76 75 75 75 76 75 74 73 73 71 68 64 59 55 51 48 50 53 58 61 60 57 48 43 57 71 70 60 47 32 22 18 18 27 41 47 43 41 46 51 44 40 46 51 56 59 60
89 93 97 98 98 99 100 100 100 100 100 100 100 101 99 96 98 98 97 100 99 97 98 98 98 98 96 95 93 91 90 87 83 81 81 79 77 77 76 76 77 78 78 76 74 73 71 68 63 59 56 55 53 52 54 54 57 59 56 53 48 42 46 55 62 65 61 47 29 22 23 24 28 39 49 41 31 37 40 39 41 45 50 51 53
86 90 95 98 98 97 98 100 100 100 99 100 101 100 100 100 100 100 99 101 100 98 99 99 96 95 96 93 91 90 88 85 82 80 79 78 77 77 77 78 79 80 78 76 75 72 70 65 61 58 56 56 56 55 57 57 55 54 51 47 44 38 32 28 32 42 50 50 44 42 44 47 44 45 54 50 39 33 30 36 45 48 50 46 46
84 87 91 95 96 95 97 99 99 100 100 99 100 101 100 100 100 100 100 100 100 100 100 100 97 97 97 92 90 89 86 83 81 80 78 77 77 78 77 78 78 79 77 76 75 72 68 63 60 59 58 58 58 57 57 55 53 51 48 43 35 29 23 17 18 22 25 29 40 51 53 53 51 48 53 53 47 40 32 36 42 41 45 49 51
84 87 90 93 94 95 96 98 99 99 99 100 100 100 100 100 100 100 100 100 100 100 100 100 100 98 95 90 89 88 84 82 81 79 78 78 78 77 77 77 78 78 77 76 75 72 67 63 62 62 61 59 58 57 56 55 53 48 41 35 27 22 20 18 18 20 20 21 32 51 58 57 54 52 56 53 46 45 41 38 38 38 40 42 47
85 88 92 94 93 95 96 95 97 98 99 100 100 100 100 100 100 100 101 100 100 101 100 101 101 97 93 90 89 87 85 84 82 80 79 79 78 77 77 78 76 75 76 77 76 73 69 65 64 64 61 60 58 57 56 53 49 43 36 30 25 22 21 21 21 21 27 33 40 50 57 60 61 60 61 57 52 53 48 40 38 43 42 36 42
86 89 92 95 95 96 96 94 95 98 99 100 100 100 100 100 101 100 100 100 100 101 100 100 100 96 93 91 88 87 85 84 83 82 80 79 78 78 77 75 73 72 75 78 78 75 70 66 65 63 61 59 58 57 54 50 46 41 35 28 25 24 23 22 25 25 28 35 41 49 54 58 61 62 63 63 62 60 54 48 45 47 46 40 42
81 88 92 93 94 94 93 91 94 98 100 100 100 100 101 100 101 100 100 101 100 100 100 100 99 95 93 92 89 87 85 83 83 81 80 80 79 78 75 72 70 70 75 78 77 75 71 67 65 62 61 60 58 56 53 49 46 39 32 28 27 28 27 26 26 24 24 27 33 45 55 59 62 65 67 67 66 62 59 59 52 47 48 45 41
76 86 90 89 91 93 92 90 93 99 100 100 100 100 101 100 100 101 100 100 100 100 100 100 100 96 94 92 89 87 85 83 83 81 80 81 79 76 71 69 69 69 73 76 75 74 71 68 64 62 61 60 58 55 53 50 44 37 31 30 31 31 31 30 29 27 26 25 31 45 57 64 67 69 70 68 69 67 65 64 55 46 45 41 40
75 84 88 88 90 92 92 91 95 100 100 100 101 100 101 100 100 101 100 100 100 100 100 100 100 98 95 93 90 88 86 85 83 81 81 81 77 72 68 67 68 69 72 73 71 70 70 66 63 62 60 60 57 55 53 50 43 38 34 34 36 35 33 34 35 35 34 32 37 49 60 66 69 70 70 70 71 69 66 64 57 52 48 43 42
74 81 86 87 89 92 92 91 96 100 100 100 100 100 101 100 100 101 100 101 100 100 101 100 100 100 97 94 91 88 87 85 83 82 82 79 73 69 67 67 68 67 69 68 66 67 67 64 62 61 60 59 58 56 53 50 44 39 37 38 40 39 38 41 43 44 44 42 46 56 62 65 67 68 69 68 68 67 65 62 58 57 53 48 47
71 79 86 87 89 91 90 92 97 100 100 100 100 100 100 99 100 101 100 100 100 100 101 100 100 101 98 95 91 89 88 86 84 83 80 75 70 68 68 68 66 66 65 64 63 64 64 63 62 61 61 59 58 57 54 51 46 41 39 41 42 44 47 51 50 48 49 49 52 59 61 61 64 64 63 63 64 63 61 59 58 61 59 53 50
73 80 90 89 88 89 88 92 98 100 100 100 100 100 99 98 99 100 100 100 100 100 100 100 100 100 99 96 92 90 88 86 84 81 77 72 69 67 68 67 64 63 63 61 60 62 63 63 62 62 61 59 59 58 54 52 48 43 43 46 47 52 57 59 54 50 53 54 56 58 58 60 61 61 60 60 60 59 58 56 55 59 64 64 59
75 81 90 91 89 87 87 93 97 99 100 100 100 100 100 99 99 100 101 100 100 100 100 100 101 100 98 96 93 91 88 86 83 79 74 70 68 67 68 67 63 61 62 60 59 60 61 62 62 62 61 60 59 57 55 54 49 46 50 52 54 58 60 59 55 52 55 57 55 55 57 59 59 57 56 56 55 56 57 57 56 57 61 68 68
74 79 87 90 89 89 90 95 98 98 98 99 100 99 99 100 100 100 101 100 100 100 100 100 100 100 99 97 93 90 87 84 80 76 72 70 68 67 68 65 61 61 61 60 59 59 60 61 61 61 60 59 58 57 57 53 47 48 51 53 58 61 59 59 57 55 57 57 54 53 54 56 57 55 53 53 53 54 55 56 57 55 55 60 66
74 78 83 86 89 91 94 97 98 97 96 97 97 96 98 100 101 100 100 100 100 100 101 100 100 100 99 96 92 88 86 82 78 73 71 70 66 67 68 63 60 61 61 59 58 58 59 59 60 59 59 59 58 59 58 50 44 47 49 52 59 61 59 61 60 56 57 58 55 53 52 55 57 56 54 54 54 56 56 54 54 54 54 56 61
75 77 81 83 86 93 96 97 98 97 97 96 93 94 98 100 100 100 100 100 100 100 100 100 101 100 97 93 89 87 84 79 75 72 70 68 66 67 67 62 60 62 60 59 57 57 58 59 59 59 59 59 59 60 59 50 45 49 51 52 58 61 60 62 59 56 56 56 54 52 52 56 57 56 56 57 57 58 57 55 55 56 59 59 59
77 79 83 85 88 94 96 94 94 96 97 96 93 94 97 99 100 101 99 98 98 100 100 100 100 98 93 90 87 84 81 77 74 71 69 67 65 67 65 59 59 62 61 59 57 57 58 59 59 59 59 60 60 61 60 54 50 54 56 54 57 60 61 60 58 57 56 55 53 52 53 55 57 57 57 57 58 58 56 57 58 57 58 58 58
80 84 90 93 94 95 94 91 91 92 95 96 94 94 97 98 99 100 99 96 96 99 100 98 97 94 90 88 85 82 79 75 73 70 67 66 65 66 63 57 58 60 60 61 59 57 59 59 59 60 60 61 61 61 61 57 54 55 58 57 57 59 60 61 61 59 58 56 55 54 54 56 58 59 59 59 59 58 57 60 60 55 53 55 56
83 88 94 98 97 96 93 91 89 90 93 95 94 94 96 97 97 97 97 93 93 97 97 95 94 92 89 87 84 81 78 74 72 69 66 65 65 64 60 56 57 56 57 60 61 60 60 60 60 61 61 61 62 62 62 60 56 57 58 57 58 61 61 62 64 62 59 58 57 57 57 59 61 61 62 64 63 60 59 60 60 56 53 55 56
86 92 95 97 98 96 93 90 89 88 90 92 93 93 93 95 96 95 94 91 89 92 93 92 93 91 89 86 83 80 77 74 71 68 65 64 65 62 58 57 56 54 55 59 61 63 62 61 61 61 62 62 61 62 62 60 58 58 60 59 59 62 62 60 63 63 61 60 59 60 60 62 65 64 63 63 59 55 57 59 59 57 57 57 55
90 95 96 97 98 96 92 90 88 88 88 90 92 92 92 93 93 94 94 90 87 87 90 91 90 89 87 85 82 79 76 73 70 66 65 65 64 61 58 57 55 51 50 53 59 64 65 64 63 62 63 63 62 62 62 60 60 60 62 63 62 64 63 60 61 62 62 62 60 60 62 65 64 57 51 49 45 43 49 55 56 54 57 58 56
95 97 94 94 95 94 91 89 88 88 88 89 89 90 92 93 93 93 92 90 86 84 86 87 87 86 86 83 81 79 75 72 68 65 65 65 63 60 57 55 53 47 41 43 54 63 66 66 65 64 65 63 62 63 62 60 59 60 63 64 63 65 64 62 63 62 62 62 61 61 61 58 51 44 41 41 39 37 41 46 47 47 52 58 57
96 96 91 89 91 91 90 88 88 88 89 88 88 88 90 92 93 93 92 89 87 84 83 85 85 84 84 82 80 77 74 69 66 64 65 65 61 58 56 55 51 39 28 31 48 61 67 69 68 66 67 66 65 65 62 59 56 57 60 62 62 63 63 62 63 62 62 63 62 62 59 47 40 40 40 39 38 37 37 39 40 41 44 51 58
92 91 87 85 87 88 88 87 86 87 88 89 89 88 89 91 91 91 91 90 89 85 82 83 84 84 83 81 79 77 73 68 66 65 64 63 60 57 57 54 44 28 19 25 43 59 67 70 70 69 68 68 67 64 60 58 55 55 57 60 61 61 59 61 61 60 60 61 61 64 59 45 39 41 41 39 38 38 37 36 37 34 29 31 45
87 88 85 82 84 87 87 86 85 86 88 89 89 89 90 91 90 89 89 89 89 86 82 82 85 84 82 81 78 76 73 69 67 65 62 62 60 58 57 50 33 21 20 27 40 57 68 71 71 70 69 67 65 62 59 59 58 57 57 59 61 58 56 60 61 58 58 59 61 63 58 46 40 40 40 39 38 38 37 37 36 30 19 15 24
84 86 84 81 82 83 84 85 85 86 87 88 88 89 90 90 90 89 88 88 89 88 85 85 85 84 82 81 78 75 73 70 68 64 61 62 61 59 62 54 32 20 24 32 45 60 70 73 72 70 69 67 64 62 62 61 61 60 58 58 59 57 58 61 61 60 59 59 62 62 56 49 43 39 39 39 38 37 38 38 36 30 21 14 14
83 83 81 79 78 79 82 84 85 85 87 87 87 88 89 89 90 89 89 89 89 90 89 88 87 86 84 80 77 75 73 69 67 63 61 63 63 64 68 58 35 24 29 39 52 65 71 73 71 70 69 66 64 64 62 61 60 59 57 57 58 58 59 60 59 58 56 56 58 56 51 50 45 39 38 38 37 38 38 37 40 40 31 20 16
81 81 80 79 78 80 83 84 85 86 88 88 88 88 88 89 89 89 89 90 89 89 91 91 90 88 84 80 77 74 72 68 66 63 62 65 69 67 62 48 31 27 34 43 55 65 70 70 69 68 67 64 63 61 59 59 59 58 57 55 52 52 55 57 57 56 54 54 51 46 44 45 42 38 37 37 38 38 37 40 47 48 39 30 27
76 77 78 79 79 81 83 84 85 86 87 88 87 87 88 89 90 91 90 90 89 89 91 91 91 89 85 82 79 75 72 69 66 63 64 69 70 63 53 41 31 31 39 47 57 65 67 67 67 66 64 61 60 59 59 59 55 48 42 35 32 40 50 56 57 56 54 52 45 40 41 41 38 37 37 38 38 37 38 45 53 51 44 42 42
72 74 77 80 80 81 83 84 85 85 85 86 86 87 89 90 92 92 91 91 91 90 90 90 90 90 87 83 79 75 73 71 68 67 69 70 65 57 51 41 32 36 46 53 58 63 63 64 64 62 60 60 60 56 50 43 33 25 20 17 25 45 57 60 59 56 52 48 41 40 41 38 37 38 38 38 38 37 41 49 53 52 49 49 48
71 74 77 80 80 81 84 84 85 85 85 85 86 87 89 90 92 93 92 91 91 89 89 89 89 88 85 81 78 75 73 72 71 71 72 69 61 57 53 39 27 34 46 52 56 60 61 60 60 59 57 53 47 38 26 19 16 14 14 20 37 56 64 63 60 55 50 44 40 39 39 37 38 38 36 38 38 37 42 50 54 53 51 51 49
71 74 76 78 81 83 84 84 85 86 85 85 86 87 89 91 92 93 93 92 92 89 89 89 87 85 83 81 79 76 74 74 74 74 72 66 61 57 49 33 23 28 39 47 53 56 57 57 56 54 48 35 25 20 16 15 17 17 19 32 50 60 61 61 58 53 48 44 39 38 37 37 38 37 36 38 38 37 40 47 55 56 52 51 50
71 74 75 77 80 82 83 83 84 85 85 86 86 87 89 91 93 94 93 92 91 88 88 87 86 84 84 84 81 79 78 77 75 75 71 65 61 55 39 25 23 30 36 42 47 48 48 49 46 41 31 20 14 16 19 21 23 25 30 43 57 60 57 57 55 49 46 44 42 41 40 38 37 37 36 37 38 39 39 42 51 57 54 51 49
72 75 77 78 79 80 82 81 82 84 86 86 86 88 89 91 93 94 91 89 88 87 87 87 86 86 85 84 83 81 80 78 76 74 69 63 60 51 32 19 22 29 31 32 33 34 33 32 29 23 18 16 15 17 22 26 30 34 40 48 57 57 52 50 50 46 44 43 44 45 43 39 36 36 37 37 38 39 39 40 47 52 49 47 46
77 78 79 79 79 79 80 80 82 84 85 85 86 88 89 91 93 92 89 88 87 86 85 86 86 86 85 84 84 83 81 80 77 73 67 62 56 44 26 16 19 22 22 21 23 25 24 22 21 19 19 21 21 20 24 30 34 40 46 50 52 49 44 45 47 46 44 45 45 44 41 39 37 36 37 38 38 39 39 40 42 44 44 44 45
81 81 80 79 78 78 79 80 82 84 84 85 86 88 90 91 91 90 87 87 87 85 85 86 86 87 86 85 85 84 82 80 76 71 66 60 47 32 20 15 17 19 20 21 22 24 24 23 24 26 27 27 25 23 25 29 35 41 45 46 46 42 38 40 44 45 45 46 44 42 39 38 37 37 38 38 38 39 40 40 40 40 41 42 44
81 79 79 79 78 78 78 80 82 83 84 85 85 87 90 90 89 89 87 87 87 86 86 87 86 87 87 87 86 84 82 81 76 68 64 56 40 26 18 16 16 21 28 33 33 32 35 40 43 44 42 37 34 31 27 26 31 38 41 42 42 40 37 37 40 42 43 43 43 42 40 38 38 38 39 39 39 39 39 40 42 41 39 41 46
79 79 80 79 78 79 80 80 82 83 83 85 85 85 88 89 88 88 87 86 87 86 86 87 87 87 88 87 87 86 84 83 77 67 61 53 37 25 24 26 27 29 34 40 43 46 52 57 59 60 57 50 46 44 37 29 27 31 37 40 39 38 38 37 38 40 41 42 43 43 41 39 38 39 40 40 40 40 40 40 42 41 41 44 48
80 81 82 80 78 80 81 80 82 84 83 84 85 84 86 87 87 87 87 87 86 85 86 88 88 88 88 87 87 88 86 83 76 66 61 56 42 30 32 41 48 49 44 39 39 48 59 63 61 64 66 62 58 56 52 44 35 29 29 34 38 38 37 37 39 40 40 41 42 43 42 40 39 40 40 41 40 41 41 41 42 43 44 46 48
81 82 83 81 79 80 81 80 82 83 83 84 84 83 85 86 86 87 87 87 86 85 87 89 88 87 87 86 85 86 86 82 76 67 63 59 49 39 39 49 62 68 63 48 38 42 57 64 61 62 65 64 62 64 63 61 53 40 29 27 32 36 37 37 39 40 40 40 41 42 42 41 40 40 40 41 41 42 42 42 43 45 45 45 44
84 85 84 81 80 81 81 80 81 83 83 83 83 82 84 85 86 88 87 85 86 87 87 88 87 85 85 84 83 83 83 82 79 74 70 65 57 50 49 54 62 69 71 66 56 51 54 58 59 61 61 60 62 64 64 62 59 53 42 31 27 30 35 38 39 39 39 39 39 41 43 43 43 44 44 43 44 45 45 44 44 44 45 45 44
87 87 84 82 82 82 81 80 81 82 82 82 82 82 84 85 86 87 85 83 85 87 87 87 85 84 84 83 82 82 83 83 82 80 76 71 64 58 56 57 59 62 65 68 67 58 48 46 54 59 58 59 61 58 54 52 52 53 52 45 33 26 27 32 37 39 38 39 40 43 46 46 46 46 45 44 44 45 46 45 44 43 44 46 47
87 87 85 84 84 83 82 81 81 81 81 82 82 83 83 84 85 84 83 84 86 87 86 85 83 82 82 81 82 83 83 83 82 81 79 76 70 65 61 59 59 62 63 64 65 57 42 37 45 52 52 54 56 50 46 47 49 49 52 54 48 36 24 22 27 29 30 33 40 44 45 44 45 46 46 45 46 46 46 45 44 43 44 45 45
87 86 85 85 85 84 83 82 81 82 82 83 83 83 84 83 83 83 82 83 85 85 85 83 82 81 81 81 83 84 82 80 79 78 79 79 76 73 69 64 61 62 63 64 64 57 39 30 39 48 49 48 49 47 46 47 47 46 47 51 54 48 35 23 19 19 24 32 39 41 42 44 45 46 45 44 45 45 45 45 45 44 44 44 44
Wind_Speed
10 13 12 12 14 17 18 19 20 19 19 19 19 22 22 20 21 19 18 19 19 19 18 17 16 15 14 13 13 12 11 10 9 8 8 8 9 9 8 7 7 7 6 5 4 3 3 4 5 6 7 7 7 6 6 6 5 4 3 2 2 3 4 6 11 13 13 14 14 14 16 18 19 21 22 22 20 21 22 21 20 19 18 18 20
11 13 13 14 14 17 18 20 22 21 21 21 19 21 22 20 22 22 20 19 19 18 18 18 16 15 14 13 13 13 12 12 11 11 11 10 11 11 9 8 8 7 5 4 2 3 4 5 6 6 6 6 7 6 6 6 5 3 1 2 4 7 8 7 11 11 7 9 10 9 9 10 13 17 21 22 20 19 21 22 20 19 18 17 18
11 12 14 16 16 17 17 18 21 21 21 21 19 20 21 18 19 22 21 19 17 17 17 16 14 13 12 14 15 14 14 14 13 14 14 14 13 12 10 8 7 5 4 3 4 5 5 6 6 6 5 6 6 6 6 5 4 1 2 5 7 10 12 11 8 7 4 6 8 6 4 4 5 9 14 18 20 20 20 21 21 18 17 16 17
12 12 13 16 18 18 16 17 19 18 19 19 19 19 19 18 18 19 20 19 18 17 17 16 16 14 13 14 15 15 16 16 16 17 17 15 13 12 10 8 6 4 4 3 4 5 6 6 5 5 5 5 5 5 4 3 1 2 5 6 7 8 11 14 12 7 5 5 4 2 3 3 2 4 8 10 14 19 19 20 20 18 16 15 16
12 13 14 16 19 19 17 18 18 19 19 19 20 19 18 19 20 19 20 19 18 18 19 19 17 16 16 16 17 17 18 19 19 18 17 15 13 11 10 7 6 5 5 5 5 6 6 5 5 4 4 4 4 3 2 2 3 5 7 7 8 9 10 14 17 16 11 6 3 2 1 1 2 3 5 5 7 13 16 15 16 17 15 13 14
11 12 15 16 18 19 18 19 19 18 19 19 20 19 18 20 20 19 19 17 18 20 20 19 18 18 20 21 20 21 19 18 19 19 17 15 13 11 10 8 7 6 6 6 7 6 5 4 3 3 3 3 3 4 6 7 7 8 9 9 10 11 12 12 15 18 19 17 14 11 7 5 3 1 1 3 5 8 12 13 13 15 15 13 12
11 12 14 15 18 19 18 20 18 14 17 18 18 17 18 20 19 18 19 18 19 21 21 19 19 20 20 21 21 22 20 18 18 18 16 15 13 11 10 9 7 7 7 8 8 6 4 3 3 3 4 6 7 9 9 10 10 10 10 10 10 11 12 10 10 11 15 19 21 20 18 15 10 5 2 2 3 4 8 13 12 13 15 13 11
11 12 14 15 18 19 18 19 16 13 16 18 17 16 17 18 17 17 18 18 19 21 22 20 21 22 21 21 20 20 21 20 19 17 16 14 13 12 10 8 7 6 7 7 6 4 3 4 4 5 7 9 10 11 12 12 13 13 12 12 13 14 15 14 12 10 10 13 18 21 22 21 18 14 9 4 2 2 4 8 10 11 13 15 12
12 12 14 15 17 20 19 19 18 15 16 18 17 17 17 17 17 16 17 18 19 21 21 20 22 22 21 22 21 20 21 22 20 18 16 15 13 12 9 7 5 5 6 5 3 3 4 5 6 7 9 10 11 12 13 14 15 15 15 16 16 17 18 19 19 17 14 12 12 13 15 15 16 15 12 9 6 3 3 5 6 6 8 13 13
13 12 14 16 18 20 19 19 19 17 17 18 17 17 18 17 17 17 17 18 20 20 19 19 21 20 20 23 23 22 23 23 21 19 17 15 12 10 8 6 4 3 3 2 3 5 5 6 7 8 10 11 13 14 15 15 15 16 16 17 18 19 21 22 24 24 22 20 17 13 11 10 10 11 11 10 8 6 5 5 8 7 4 7 9
13 13 14 18 21 21 20 19 19 18 18 18 18 18 19 19 18 18 17 20 21 20 19 18 18 19 22 24 24 23 24 23 21 19 17 14 12 11 8 5 2 1 2 4 6 6 7 8 9 10 12 13 14 15 15 16 16 17 17 18 19 21 23 24 25 26 26 26 24 19 16 13 12 11 11 11 10 8 6 6 8 8 4 5 7
14 12 13 17 19 21 21 21 20 19 19 19 19 19 20 19 20 19 19 21 21 20 20 17 16 20 24 24 24 24 23 22 20 19 18 15 14 12 9 6 4 4 5 6 8 8 8 10 11 12 13 13 14 15 16 16 17 17 18 20 21 22 24 25 26 26 25 25 24 22 19 17 16 14 12 12 11 10 7 6 8 7 4 5 7
14 12 13 15 16 18 21 22 21 21 22 22 21 21 20 20 20 21 21 22 21 20 20 19 18 23 25 23 23 23 23 22 21 19 19 17 14 12 9 7 6 6 7 8 9 9 10 11 12 13 13 13 14 15 16 16 17 18 20 21 23 23 24 26 26 26 26 25 24 22 20 18 17 16 14 12 11 10 9 7 8 6 4 6 7
14 12 14 14 16 19 22 22 22 23 25 23 22 22 21 20 21 22 22 22 21 20 21 21 22 24 24 23 22 22 22 22 20 20 19 16 13 11 9 8 7 6 8 10 11 11 11 12 12 13 13 14 15 16 16 16 17 20 21 23 24 25 25 27 27 27 26 26 25 22 20 18 17 16 14 13 11 10 11 10 9 6 4 7 8
15 15 15 15 18 22 22 23 22 24 25 24 22 23 23 22 22 23 22 21 21 22 23 22 23 24 24 22 22 22 22 21 20 19 17 15 13 11 10 9 7 7 10 12 13 12 13 13 13 13 15 15 15 16 16 17 18 21 22 24 25 25 26 27 27 27 26 26 25 23 20 18 16 15 14 13 13 12 12 12 12 9 5 8 10
16 16 16 17 21 23 22 22 22 23 24 24 23 24 25 23 23 25 25 22 23 24 23 22 23 24 23 22 22 22 22 21 20 18 16 14 13 11 10 8 7 9 13 14 14 13 13 14 14 15 15 16 16 16 17 17 18 21 22 24 24 24 26 26 26 26 26 25 24 22 19 17 16 15 14 13 12 12 12 13 14 12 8 8 9
18 17 16 18 21 22 23 23 22 22 23 26 25 25 26 25 24 25 26 24 24 24 23 24 23 23 23 23 23 23 22 21 20 19 16 14 13 11 10 9 8 11 14 14 14 14 14 15 16 16 16 16 16 16 16 17 18 20 22 23 24 24 25 25 24 24 24 23 23 20 18 16 15 14 13 13 12 12 13 13 13 13 10 7 6
19 19 16 17 20 23 25 24 23 23 24 26 25 23 24 25 24 25 26 25 26 26 25 25 24 24 24 23 23 23 22 21 20 18 17 16 14 12 10 10 10 13 15 15 14 15 16 16 16 17 17 16 16 16 16 17 18 20 21 22 23 23 23 23 23 23 22 21 20 18 16 15 14 14 13 13 13 13 12 12 11 10 9 8 6
18 18 15 14 20 24 26 24 24 25 24 24 25 24 23 25 26 27 28 27 27 27 26 25 25 25 24 24 24 24 22 21 20 18 17 16 14 13 12 10 12 14 15 15 15 16 16 17 16 17 17 16 16 16 16 16 17 19 20 21 21 21 20 20 21 22 21 19 18 17 15 14 12 12 12 12 13 13 12 12 11 9 7 6 6
18 18 15 15 20 24 26 25 25 27 26 24 27 29 25 24 26 26 27 28 27 27 28 26 26 26 26 26 25 24 23 22 20 19 18 16 15 15 13 11 14 16 16 16 16 16 16 17 17 17 17 17 17 17 16 15 17 18 19 19 19 18 18 18 20 21 19 17 17 16 14 13 11 11 11 12 12 13 13 11 11 10 8 6 6
18 18 16 16 19 23 25 25 24 28 30 26 27 30 25 22 24 25 27 29 27 27 29 29 28 27 27 26 25 25 24 22 21 20 18 17 16 16 13 12 16 17 17 16 16 16 16 17 17 17 17 18 18 17 16 15 16 18 19 18 17 16 16 17 17 18 17 16 15 15 14 13 12 11 11 12 12 13 13 11 11 11 11 9 8
18 18 18 16 18 21 23 24 25 27 30 29 27 27 25 24 27 27 27 28 28 28 29 29 29 27 27 27 26 25 24 23 23 21 19 19 19 16 12 13 17 18 17 17 16 16 16 17 17 18 18 18 18 17 16 15 17 18 19 18 16 15 15 15 15 15 15 15 15 14 13 12 11 11 12 12 13 13 12 12 12 12 13 12 11
18 18 17 16 19 21 21 23 26 25 27 30 30 27 25 28 31 28 25 26 29 30 29 28 28 27 27 28 27 26 25 25 24 23 22 21 20 16 13 15 19 19 18 17 16 17 17 17 18 18 18 18 18 17 16 16 17 18 18 17 15 14 14 13 13 13 14 14 14 13 12 11 10 11 11 12 13 13 13 13 13 13 12 14 14
18 17 14 14 18 20 20 23 25 24 24 28 30 30 30 31 29 27 28 30 31 31 29 27 28 29 29 29 27 27 28 27 26 25 24 23 20 17 15 17 20 19 19 18 17 17 17 18 18 18 18 18 18 18 16 16 17 17 16 15 14 13 12 12 12 12 13 13 12 12 11 10 9 10 11 11 13 14 14 13 13 13 13 15 17
18 17 14 14 16 17 19 23 25 24 25 26 27 30 33 33 31 30 33 33 32 32 31 30 31 31 30 29 29 29 28 28 28 27 25 23 21 18 17 19 20 19 18 18 18 18 18 18 19 18 19 19 18 17 16 16 16 16 15 14 13 12 11 10 10 11 11 12 11 11 10 9 9 10 11 12 13 16 15 13 13 15 16 17 18
18 17 16 16 15 15 18 23 25 25 25 25 25 28 32 35 34 33 35 34 32 33 32 32 32 31 30 30 29 29 29 29 28 27 25 24 21 19 20 20 19 18 18 18 18 19 19 19 19 18 18 18 18 18 16 15 15 15 14 13 12 11 10 9 9 9 9 10 10 10 9 9 9 10 11 12 13 15 15 14 14 16 17 18 19
17 15 15 15 15 15 18 23 24 25 26 26 26 28 31 34 33 33 34 35 34 33 32 32 32 31 31 30 29 29 29 29 28 27 25 23 21 20 21 20 18 17 18 19 20 20 20 19 19 18 18 18 18 18 17 15 14 14 13 12 11 10 9 8 8 7 8 8 8 9 9 9 9 10 11 13 14 16 16 15 15 17 19 19 20
16 15 15 15 15 15 18 22 23 22 24 25 27 28 29 31 34 34 34 35 36 35 33 32 32 32 31 30 29 29 29 28 28 27 25 23 22 22 22 20 18 17 18 19 21 21 21 20 19 18 18 17 17 18 17 15 14 13 12 10 10 9 8 7 7 6 6 6 6 7 8 8 9 10 12 13 15 17 17 16 17 19 20 20 19
17 16 16 17 16 14 17 22 23 22 22 23 25 26 26 29 33 34 34 36 37 36 34 33 33 32 31 30 30 29 29 28 27 27 25 23 23 23 21 19 17 17 18 20 21 22 21 21 19 18 18 17 18 18 17 15 14 13 11 10 9 8 7 6 5 4 4 4 3 4 7 8 8 10 12 11 13 16 18 18 19 21 21 20 19
17 17 18 18 17 15 17 22 24 24 23 22 22 24 25 28 31 32 33 34 36 36 35 34 33 32 31 31 30 30 30 29 28 27 25 24 23 23 21 18 17 16 17 19 21 22 22 21 20 19 19 18 17 17 16 14 13 12 11 10 9 8 6 5 4 3 3 2 2 2 5 7 8 10 11 10 12 17 19 19 19 21 23 21 18
17 18 19 18 17 16 17 21 25 27 24 21 21 23 26 30 33 34 34 34 34 35 35 34 33 32 31 31 31 31 30 30 29 27 25 25 24 22 20 17 16 16 17 19 21 22 22 21 21 20 19 18 17 17 16 14 12 11 10 9 9 8 7 5 4 3 2 2 2 0 3 6 8 11 11 10 13 17 20 20 20 21 23 22 19
20 20 20 20 19 18 18 21 25 29 27 23 23 25 29 33 36 37 37 35 33 34 35 35 33 33 32 32 32 32 31 31 29 27 27 26 25 23 20 17 17 17 18 19 21 21 21 21 21 20 19 18 17 16 15 13 11 10 9 8 8 8 7 5 4 2 2 2 2 0 3 5 8 11 11 10 14 18 20 21 21 22 22 20 19
21 20 21 21 20 20 21 24 26 27 27 26 28 30 32 34 35 36 37 35 32 31 34 35 34 33 34 33 33 33 33 32 30 29 29 28 26 24 20 17 17 18 18 19 20 21 21 21 21 20 19 18 17 16 14 12 10 9 8 7 7 7 6 5 4 3 2 3 2 0 2 5 8 11 11 12 15 19 21 22 23 24 23 21 19
20 20 20 19 20 23 25 26 26 25 25 27 32 34 34 34 34 35 35 34 30 28 29 33 34 34 34 35 35 35 34 33 31 31 31 30 27 24 21 20 20 19 19 20 20 21 21 21 21 20 19 18 16 15 13 11 10 9 7 7 6 6 6 5 4 3 3 3 2 1 2 5 8 10 12 14 16 19 22 24 24 22 22 22 21
19 20 20 19 21 24 24 25 26 26 26 28 31 32 31 32 33 35 35 33 31 28 27 30 33 34 35 36 36 36 36 35 34 33 32 30 27 25 23 23 21 20 21 21 21 21 22 21 20 20 19 18 16 14 12 10 9 8 7 6 6 6 6 6 5 5 4 3 2 2 3 5 8 10 12 14 16 19 21 23 21 19 20 22 21
22 23 23 22 23 24 24 24 25 27 28 29 31 31 31 31 33 34 35 33 31 28 26 28 31 32 34 35 35 36 36 35 35 35 33 31 29 27 26 23 21 21 22 22 21 22 22 21 20 20 19 17 15 13 11 9 8 7 7 7 7 6 6 6 6 6 5 4 2 2 3 6 8 10 12 13 15 18 20 20 18 18 20 20 19
22 23 22 22 23 23 24 25 25 26 28 30 33 33 31 32 32 32 32 31 30 27 27 30 31 32 34 35 35 36 36 35 36 35 34 32 31 29 26 22 22 23 23 22 22 22 22 21 21 20 19 17 15 13 11 9 8 7 7 7 7 7 7 7 7 7 5 4 2 2 3 6 8 10 11 12 14 17 18 17 16 17 19 18 18
21 22 20 21 22 22 25 27 25 25 28 34 37 34 32 33 33 31 30 29 28 28 29 30 31 32 34 35 37 38 37 37 37 35 34 33 32 29 25 22 23 24 24 23 23 23 22 21 21 20 18 17 16 14 12 10 8 7 7 8 8 8 8 8 8 7 5 3 2 1 3 6 8 10 11 12 14 16 16 15 15 17 18 16 18
22 23 23 24 24 24 26 27 25 25 30 36 38 36 34 33 31 31 31 29 28 29 31 31 32 34 34 35 37 38 37 37 37 35 34 33 32 28 25 23 24 24 24 24 23 23 23 21 20 19 17 16 16 14 11 9 8 7 8 9 9 9 9 8 7 6 5 4 2 1 3 5 7 9 11 12 13 15 15 14 14 15 16 17 20
21 24 25 25 25 25 26 26 26 28 32 37 38 35 34 31 28 29 30 30 31 33 33 33 35 35 34 34 36 37 36 36 36 35 35 34 32 28 25 24 25 25 25 25 24 23 23 21 20 18 16 15 14 13 10 8 8 9 10 10 10 9 9 8 7 6 5 4 2 1 3 5 7 9 10 12 13 14 15 15 14 14 15 18 23
22 24 24 23 23 25 27 27 27 29 33 37 36 31 29 29 29 30 31 32 34 36 35 35 35 36 35 35 36 37 37 37 36 35 35 35 32 28 26 26 26 27 26 25 24 23 22 21 20 19 17 15 13 11 10 8 9 10 12 11 10 9 9 9 7 6 5 3 1 1 3 5 7 8 10 12 13 14 16 16 15 14 16 20 24
19 22 24 23 23 25 27 25 26 30 33 37 35 29 26 28 29 31 33 30 31 36 37 37 37 38 37 37 38 37 37 37 36 36 36 35 32 29 27 26 27 27 27 26 25 24 23 21 20 18 17 15 12 11 10 9 10 11 12 12 11 10 10 9 6 5 4 2 0 2 3 5 7 9 10 12 13 14 16 16 17 18 19 20 23
17 20 23 23 23 26 26 24 26 30 33 37 36 30 28 29 29 30 29 26 29 37 38 37 37 37 36 37 38 37 36 36 37 36 37 36 33 30 29 28 28 28 28 26 25 24 23 22 20 17 16 14 12 11 9 8 10 12 13 13 12 11 10 9 6 4 3 1 1 3 4 6 7 9 10 12 13 15 16 17 18 19 20 21 22
18 21 24 23 22 26 26 24 26 30 34 38 37 32 29 29 29 29 27 27 32 37 36 35 36 35 34 35 36 36 36 36 37 38 38 36 34 33 32 31 30 29 27 26 26 25 23 21 18 16 15 14 13 11 9 8 9 11 13 13 12 11 9 8 7 5 3 1 2 4 5 6 8 9 10 12 14 15 16 17 18 19 20 20 20
18 20 22 22 22 24 24 22 23 27 31 35 36 35 31 26 27 31 31 31 34 36 34 35 36 35 35 36 35 35 35 36 37 39 39 37 37 36 34 33 32 29 27 26 26 25 21 18 16 14 15 15 14 11 10 9 8 10 12 13 12 11 9 8 7 5 3 1 2 4 5 7 8 9 11 13 14 16 17 17 18 19 19 18 18
17 18 20 21 22 22 22 20 21 24 28 31 33 35 31 26 27 32 32 32 36 38 35 34 34 34 36 36 35 35 35 35 38 40 39 39 39 38 37 35 32 28 27 28 28 25 20 17 16 15 14 15 15 13 11 10 9 9 10 11 12 12 10 8 8 6 4 2 3 5 6 7 8 10 12 14 15 17 17 17 18 19 18 17 17
17 20 22 21 21 22 22 20 20 22 27 30 30 31 30 28 31 34 33 34 38 39 36 32 31 33 35 36 36 36 35 36 38 39 38 38 39 39 39 36 31 27 27 28 28 26 20 17 17 16 15 16 16 14 13 13 11 10 10 10 11 12 11 10 8 7 5 4 4 6 7 8 9 10 12 14 15 16 17 17 16 17 18 19 19
18 21 23 22 21 22 22 20 20 23 27 29 27 26 27 30 33 35 36 37 38 37 35 33 34 36 37 36 37 36 35 36 38 37 35 36 37 37 38 36 33 31 29 28 27 26 23 20 18 16 16 17 16 14 14 15 14 12 11 11 11 12 12 11 10 8 7 6 7 8 8 8 9 10 11 12 13 14 15 16 17 17 19 19 20
18 20 23 23 21 22 21 20 20 24 28 29 27 26 28 31 34 36 38 39 37 33 32 33 35 36 35 34 35 35 35 35 34 30 30 34 37 36 36 36 36 35 33 30 27 27 28 26 22 18 17 16 14 14 14 13 12 12 12 12 11 11 11 11 11 10 9 8 9 8 8 7 8 9 11 11 12 13 14 15 17 18 18 17 17
17 20 22 22 22 24 25 25 26 28 29 29 29 29 30 32 34 36 38 39 35 29 29 32 35 35 34 34 34 34 34 33 29 24 23 28 33 35 35 35 35 34 33 31 28 27 30 29 26 22 19 16 14 13 11 9 9 11 12 13 12 11 10 11 11 10 10 10 10 9 8 8 8 9 10 11 12 14 15 15 16 17 17 16 18
17 19 20 19 20 23 24 24 26 28 27 26 27 31 33 34 35 37 39 39 35 31 30 32 32 33 35 35 33 31 29 27 25 23 22 23 25 27 30 32 31 31 31 30 27 26 27 28 26 22 19 17 14 12 10 8 8 9 11 13 13 13 12 11 10 10 10 10 9 9 8 8 8 9 11 13 14 15 15 16 16 16 16 16 17
Wind_Direction
157 158 162 162 164 168 172 173 175 180 183 181 175 173 175 179 180 184 192 191 187 183 179 175 171 166 163 161 160 161 162 158 153 152 149 144 145 142 135 136 139 134 123 116 102 71 38 10 353 340 333 330 329 326 323 323 325 320 314 346 35 57 63 100 131 135 131 122 110 99 92 86 83 78 72 69 66 64 63 63 63 61 62 58 53
151 159 162 160 160 163 167 169 173 174 176 179 174 169 175 181 183 186 189 189 187 184 181 178 177 174 168 163 160 156 154 153 149 149 148 145 146 144 142 144 142 132 118 101 55 14 2 355 344 335 331 329 327 326 326 324 321 309 275 85 84 85 70 89 140 152 156 150 142 125 109 95 86 78 71 67 65 63 60 59 58 56 59 59 52
160 164 160 158 159 161 165 168 175 176 175 178 176 171 173 178 181 183 186 185 184 184 181 177 175 175 171 167 165 157 154 156 151 147 147 147 144 142 141 138 130 116 96 55 15 4 360 354 345 339 333 331 329 327 326 320 317 293 166 126 99 88 70 68 120 159 163 154 160 158 151 151 122 90 74 65 61 62 60 57 57 55 57 60 54
168 169 161 159 160 164 168 170 176 178 173 172 171 171 171 174 177 180 185 187 183 180 179 178 177 176 173 170 168 160 154 153 148 145 145 144 140 136 134 127 113 94 75 41 15 7 1 355 349 342 336 334 333 328 324 317 320 142 154 144 115 93 75 65 72 95 124 154 184 176 166 181 155 106 91 73 58 57 58 58 56 54 58 61 56
172 173 167 162 164 169 169 172 180 179 171 169 170 173 174 173 177 181 185 185 180 178 182 182 177 170 162 157 154 149 146 146 145 143 140 139 137 131 124 115 102 85 68 48 23 9 0 353 350 345 342 345 349 352 19 80 114 131 141 138 120 104 92 78 71 74 86 103 101 87 161 179 82 104 110 97 68 56 55 57 55 52 54 58 56
180 177 171 165 166 170 170 175 184 179 170 172 175 178 178 175 178 182 182 180 179 182 186 184 176 170 162 156 152 146 143 146 148 146 142 140 138 129 119 107 92 77 60 37 18 6 360 359 3 9 19 35 66 83 93 103 112 124 130 125 114 106 101 91 80 76 77 79 80 78 79 80 80 153 143 111 103 75 55 52 53 50 50 54 56
186 183 173 167 168 170 171 177 183 175 169 175 175 175 176 175 179 182 180 178 180 184 186 182 176 174 172 166 162 157 153 153 153 151 146 142 138 130 120 106 87 66 43 19 8 8 19 42 58 71 90 97 101 100 98 102 109 116 121 117 110 107 105 100 92 84 77 76 79 80 80 80 81 79 70 98 132 113 62 51 52 50 47 49 53
188 187 177 171 172 172 171 174 179 175 171 175 172 172 173 174 177 180 181 180 183 187 188 185 182 181 180 174 166 162 162 157 152 150 146 142 137 130 120 105 82 47 21 6 8 35 68 83 94 103 109 108 103 100 98 102 106 108 109 107 103 100 100 98 94 88 86 83 81 80 78 76 75 74 68 60 75 133 83 55 51 57 51 44 46
189 190 182 175 174 176 173 170 175 180 181 179 173 171 171 173 176 178 181 181 184 188 188 188 189 186 182 177 170 165 162 155 152 150 147 146 139 130 122 104 74 25 3 6 39 91 105 105 111 113 112 106 100 100 103 105 106 105 103 100 97 94 93 94 92 88 90 92 85 78 75 73 71 67 61 58 53 53 66 38 30 53 58 44 41
188 187 183 178 176 177 173 167 172 180 185 182 174 172 172 173 175 176 180 183 184 186 186 187 189 185 180 179 174 166 160 154 153 152 149 148 143 137 131 108 73 16 10 67 115 125 124 120 122 119 113 108 106 107 108 107 105 102 99 95 93 92 92 92 91 88 87 85 81 75 68 65 64 56 48 48 48 44 45 32 20 20 36 40 35
188 186 181 178 176 176 171 167 171 178 183 181 175 175 176 175 176 177 182 186 185 185 186 185 186 185 185 182 175 169 165 160 157 154 152 155 155 149 139 116 89 86 102 127 138 136 131 128 126 121 116 113 112 112 111 108 105 100 95 93 93 93 93 91 89 86 83 80 78 74 68 64 63 57 45 41 43 38 29 25 16 8 15 25 15
184 186 182 176 174 174 173 169 171 179 184 180 176 178 178 178 179 180 183 188 187 187 188 183 182 187 187 184 179 175 172 169 167 165 164 168 165 156 143 129 123 124 131 145 145 141 138 132 128 123 118 115 115 115 114 109 104 99 96 96 96 95 93 90 87 84 82 79 77 74 72 69 66 62 54 48 46 38 28 22 10 1 5 9 3
182 182 182 177 174 175 174 170 171 181 185 181 178 179 180 180 182 183 185 188 187 185 186 183 184 189 187 184 182 179 177 177 177 175 174 173 167 156 145 134 128 133 146 151 149 148 144 137 133 126 121 119 119 118 114 109 104 100 100 100 98 95 92 88 86 84 83 81 79 77 74 71 68 65 60 54 50 43 34 22 7 358 350 355 2
186 180 181 179 175 176 175 171 173 180 181 179 178 177 177 179 183 186 186 187 185 183 184 184 186 188 188 186 185 182 180 180 180 179 175 170 162 154 144 133 127 140 154 153 152 152 148 143 137 130 126 125 124 120 115 109 105 102 102 101 97 94 90 88 86 84 83 82 82 80 78 75 71 67 63 58 53 48 39 23 7 358 347 356 2
191 181 182 180 175 175 174 170 174 180 176 174 177 177 177 179 182 185 184 183 182 182 183 184 185 187 188 188 187 185 184 182 181 179 172 164 159 153 143 130 126 147 157 155 153 154 151 147 140 134 132 130 127 123 118 111 106 105 104 101 97 94 91 88 86 84 83 82 83 83 80 77 73 68 66 62 57 52 45 33 21 14 2 359 358
191 184 183 181 174 174 175 169 171 179 175 171 175 177 178 179 180 184 185 181 180 181 182 183 185 186 187 189 189 188 187 185 179 172 166 163 160 153 142 130 133 153 157 155 154 156 154 149 142 137 135 133 130 124 118 113 108 107 106 102 98 95 92 89 86 85 84 83 83 83 81 78 75 72 69 64 59 54 48 41 36 30 15 359 353
193 188 184 181 174 173 177 171 168 175 175 173 176 178 179 179 179 181 183 180 179 180 180 182 184 184 186 189 190 190 190 185 176 168 164 163 159 151 139 135 147 157 157 156 156 157 156 152 145 140 137 134 130 125 119 114 109 108 109 105 101 97 93 90 88 86 85 83 83 82 81 79 77 74 70 64 58 53 48 43 40 36 25 10 351
193 187 182 180 175 175 179 174 169 174 175 174 175 178 179 178 179 180 179 178 179 180 181 183 184 184 186 189 191 193 190 182 174 170 166 162 159 152 144 145 155 159 159 157 157 158 157 154 147 141 139 136 132 128 122 115 111 111 112 109 104 100 95 92 89 88 86 83 83 82 82 81 79 75 69 62 55 49 46 41 38 36 27 17 354
191 183 178 180 178 178 180 174 168 170 173 172 173 177 176 176 182 184 181 180 180 180 181 183 185 185 186 190 193 191 184 178 174 170 167 165 162 157 150 151 158 161 162 160 159 160 159 155 149 143 141 139 136 131 124 116 112 115 117 114 109 103 99 95 91 88 86 84 84 82 82 82 79 73 65 58 51 44 40 35 30 25 17 6 345
188 181 177 179 179 179 178 172 165 165 168 169 172 175 172 173 181 182 180 180 180 180 181 181 184 187 187 188 187 183 178 176 173 169 167 168 166 160 153 155 163 165 164 163 162 163 162 158 153 148 145 143 140 134 126 117 114 119 122 118 114 109 104 99 93 89 87 86 84 82 82 82 77 71 62 53 46 38 32 26 20 12 4 347 328
187 180 177 177 175 175 173 167 161 163 165 166 170 170 168 171 177 177 176 177 177 178 181 182 184 188 188 184 181 179 176 174 171 170 171 172 167 160 156 162 167 167 167 168 167 166 166 162 156 152 150 147 144 138 128 119 118 124 127 122 118 115 108 104 97 91 88 86 85 84 83 80 74 66 56 47 39 30 23 17 11 5 359 351 334
184 179 177 175 172 170 166 160 158 160 163 167 170 168 167 173 177 175 173 175 177 178 180 182 184 186 185 182 179 177 175 174 173 174 175 174 167 160 162 169 169 169 171 172 171 170 169 166 161 157 154 151 148 142 131 122 122 128 131 126 122 119 113 108 102 95 89 87 86 85 82 77 69 59 50 41 31 22 16 11 6 1 355 352 345
182 179 177 175 170 165 159 155 156 159 163 169 173 171 171 175 177 175 172 173 179 180 180 182 183 183 182 180 176 176 177 177 177 177 176 173 167 162 167 174 173 172 174 174 175 174 172 170 165 160 158 156 152 146 135 125 125 131 133 129 125 123 118 113 106 98 92 87 85 84 80 72 61 50 42 33 23 16 11 5 0 356 350 348 347
178 176 173 173 168 162 157 156 159 160 162 168 171 171 173 175 175 176 174 175 179 180 181 182 181 180 179 177 176 177 179 179 178 178 176 172 167 165 172 177 175 174 175 176 177 176 175 173 169 165 163 160 157 150 140 132 131 133 135 132 129 126 121 116 110 101 92 87 84 81 75 64 53 43 33 25 18 12 7 2 356 353 349 345 343
174 170 168 168 167 164 160 160 162 162 161 167 169 168 171 174 174 175 175 176 179 179 180 181 180 178 176 176 178 178 179 179 179 178 175 171 168 169 174 177 175 176 178 178 178 177 178 177 173 169 166 163 161 155 146 141 138 137 137 136 133 130 126 123 117 106 95 87 82 78 71 61 47 36 26 18 13 10 6 1 356 353 349 344 340
174 169 166 165 165 165 162 160 162 161 159 164 167 166 169 173 175 176 175 175 177 178 177 178 178 175 175 178 179 178 179 180 179 177 174 172 170 172 175 176 177 180 181 181 181 180 180 180 176 173 169 166 165 161 155 149 146 144 143 139 135 134 133 131 126 115 101 88 81 75 67 58 44 30 20 13 10 8 5 1 357 353 349 344 340
171 166 163 162 163 164 162 162 161 160 160 163 167 168 169 171 175 177 176 174 175 177 176 177 176 176 177 178 178 178 179 179 178 176 173 172 173 175 175 176 180 184 185 185 184 182 182 182 179 175 172 170 169 168 163 158 154 153 150 145 142 143 143 140 134 124 110 95 83 72 60 52 42 26 16 12 10 7 3 359 356 353 349 345 340
167 164 161 162 165 163 163 165 161 158 158 162 167 169 168 171 176 177 174 172 174 177 177 177 177 177 178 178 178 178 179 178 177 175 174 174 176 176 176 179 182 187 190 189 186 185 183 182 180 177 175 174 173 173 171 166 162 161 158 155 154 156 156 150 140 130 122 109 88 71 56 46 37 23 15 15 12 7 1 357 355 353 349 345 340
166 163 161 164 169 167 165 167 164 158 157 158 163 167 167 170 175 177 175 173 174 176 177 177 178 178 178 177 177 177 177 177 175 175 176 177 177 177 178 180 183 188 192 191 188 186 182 181 181 179 179 178 177 178 177 172 169 167 165 165 166 168 168 161 152 144 137 127 105 73 46 36 30 17 11 14 13 7 1 356 352 351 349 345 340
165 164 166 168 170 169 167 166 165 164 162 159 160 162 163 167 172 175 176 175 175 175 176 177 178 178 178 177 176 176 175 175 175 175 177 177 177 178 180 181 184 189 191 188 187 185 182 181 181 181 181 181 182 182 179 174 171 168 169 172 175 177 174 168 165 162 161 159 145 82 30 26 21 8 4 10 12 6 2 357 352 350 349 346 340
169 171 172 170 168 171 172 168 167 168 166 161 160 160 162 166 171 176 177 178 178 176 176 178 179 178 177 175 175 174 173 174 175 176 177 178 179 179 181 184 185 186 185 184 185 183 182 182 182 182 183 183 184 183 178 175 173 171 173 176 179 182 178 177 178 169 173 183 173 144 12 16 10 359 358 5 6 3 0 357 354 352 352 351 346
176 175 175 174 172 171 174 172 170 169 167 164 161 162 166 170 173 177 180 179 179 178 177 178 179 177 175 174 173 172 173 174 175 177 179 180 180 180 182 186 186 184 182 182 183 182 181 182 182 183 183 184 184 183 179 179 178 177 181 182 184 186 181 182 188 181 182 179 167 206 0 11 4 356 355 357 358 358 358 356 354 355 357 358 355
178 176 175 177 175 173 176 176 173 169 167 166 167 168 172 174 175 177 179 179 179 180 178 177 178 177 175 174 173 172 173 175 177 180 181 180 180 179 182 188 189 186 183 180 179 180 180 182 182 182 183 183 183 182 180 181 182 184 187 184 185 187 183 185 187 181 178 167 156 82 2 4 358 356 358 357 354 354 355 354 354 355 358 1 1
179 177 177 178 177 177 177 175 173 170 164 166 172 174 174 175 175 176 177 178 181 181 177 174 174 175 175 174 173 173 174 176 178 180 179 179 180 181 185 191 191 187 183 178 177 179 180 181 181 181 181 180 180 179 178 180 184 188 190 189 192 194 194 195 191 182 174 163 149 93 14 1 356 357 358 356 353 352 352 352 352 351 352 357 2
181 179 179 179 176 176 173 168 169 167 164 167 171 172 172 173 176 177 176 177 180 181 180 175 172 173 175 174 174 175 176 176 177 178 178 180 183 185 187 190 189 186 182 177 175 178 180 180 180 180 178 175 175 174 175 180 189 197 204 211 216 215 208 201 193 184 173 161 145 82 26 6 359 357 354 352 349 350 350 349 347 345 346 352 359
183 181 181 179 175 173 169 165 164 163 164 168 170 170 170 173 177 178 176 176 176 176 178 176 173 173 175 175 174 175 175 176 177 178 180 183 185 186 186 186 187 186 182 178 177 179 180 179 178 178 175 172 172 174 178 189 201 208 213 217 217 207 194 186 182 176 168 161 141 71 28 7 0 355 350 348 346 347 349 346 342 338 341 346 350
184 181 175 171 171 169 165 165 163 162 165 169 171 171 171 172 174 176 176 177 175 172 175 177 174 173 174 175 175 176 177 177 178 180 181 183 184 185 184 185 187 184 180 178 178 180 181 179 177 177 175 174 175 179 183 190 198 201 201 201 195 182 172 169 171 170 164 156 135 67 20 3 358 352 348 344 344 346 347 344 339 336 338 341 344
179 174 165 163 165 164 164 165 162 162 167 172 173 172 171 171 172 173 175 176 176 176 178 177 176 175 176 178 180 181 182 181 180 181 183 183 184 184 184 185 186 184 180 179 180 181 183 181 179 178 179 178 178 178 178 179 182 186 186 183 178 169 163 163 164 166 166 161 152 29 4 358 353 351 349 344 343 344 345 342 337 335 337 338 342
174 172 170 169 166 161 163 164 161 164 170 172 173 172 170 171 171 172 173 172 175 179 180 178 179 179 180 181 183 184 184 184 183 185 185 185 185 184 184 185 186 183 178 177 180 182 183 182 181 181 180 178 174 169 168 170 171 171 169 169 170 167 163 164 163 164 169 174 187 308 345 349 348 351 351 346 343 342 342 340 336 333 335 337 340
174 175 173 170 164 159 163 166 166 167 169 171 172 171 171 171 169 170 172 174 179 183 182 180 180 180 180 181 182 183 185 185 186 187 186 185 185 184 183 182 183 181 177 176 179 181 181 180 179 176 173 172 167 161 162 165 160 155 153 157 165 167 163 163 164 163 166 170 176 297 333 337 342 349 350 348 344 340 339 339 335 331 331 333 338
174 174 168 165 165 165 169 172 168 164 167 171 171 168 169 171 170 172 177 181 184 184 182 180 180 180 181 181 182 185 186 187 188 188 186 185 185 184 182 181 180 179 176 175 177 179 178 175 172 168 165 164 162 159 160 158 153 152 151 154 162 166 160 156 155 156 155 146 133 349 329 329 337 344 347 348 345 340 338 336 332 328 329 331 337
169 168 166 166 168 171 172 171 165 162 166 171 171 168 168 170 173 180 183 182 182 183 182 181 180 181 182 183 184 186 187 188 190 188 185 184 183 183 181 180 179 178 175 174 174 175 173 167 164 164 163 161 160 160 158 155 155 158 160 161 164 166 161 155 152 152 146 126 61 335 325 324 333 341 343 344 343 341 338 335 332 330 329 331 337
163 166 169 167 168 174 174 167 163 164 168 173 173 169 168 171 177 183 182 177 179 182 182 180 180 180 181 184 185 186 186 187 189 187 185 184 182 180 180 179 179 177 174 172 172 171 168 165 164 166 167 166 165 163 159 155 160 167 170 170 170 168 165 162 160 158 149 121 343 333 327 322 330 339 339 339 339 337 335 335 335 333 332 333 337
166 169 170 166 168 175 175 167 164 166 171 176 175 170 170 175 181 181 177 174 178 180 178 177 178 179 180 183 184 185 186 187 187 186 185 183 181 180 179 179 179 178 174 172 173 172 170 168 168 171 174 176 174 171 166 163 165 172 176 177 176 174 173 173 172 171 172 174 341 336 328 324 329 335 335 335 334 332 332 334 336 337 337 338 338
169 168 168 168 168 170 169 165 163 166 171 175 177 174 173 177 180 180 178 177 177 176 175 176 177 178 179 180 181 183 186 187 187 186 185 183 181 180 180 180 180 179 177 176 177 177 177 176 176 177 182 185 184 180 178 177 176 179 182 184 185 184 185 186 184 187 197 233 337 336 328 324 327 331 335 335 333 331 331 332 337 342 343 341 339
165 164 166 170 168 166 164 159 158 166 171 174 177 179 177 177 179 180 178 175 174 175 174 175 176 178 179 179 179 181 184 186 187 187 187 186 185 183 182 183 183 183 183 182 182 183 183 184 186 185 186 190 192 192 194 195 194 191 190 193 195 197 199 199 196 201 215 255 319 328 324 318 319 325 330 331 331 331 331 333 339 345 346 344 341
169 166 167 168 165 164 163 156 154 164 171 174 178 181 180 179 179 179 176 174 174 174 173 173 176 177 178 180 181 182 183 185 186 187 188 189 189 188 187 187 186 187 187 187 187 189 189 190 192 192 194 197 199 201 206 209 210 208 203 202 203 206 209 207 208 218 233 259 298 316 319 313 313 319 324 327 330 332 334 337 341 344 347 348 349
170 166 167 166 163 163 162 156 154 163 171 176 180 181 181 181 180 178 177 175 174 174 173 174 177 178 179 182 183 182 182 183 185 187 188 188 189 190 191 192 194 194 192 191 191 193 195 196 195 194 198 201 205 211 215 215 215 214 212 212 212 213 215 215 219 230 242 262 288 303 310 312 313 317 321 325 329 331 334 338 342 346 348 350 352
167 166 169 168 162 157 155 155 159 166 172 176 178 180 183 183 181 179 178 176 174 173 174 175 177 177 178 180 181 181 181 183 184 185 188 192 195 195 196 199 202 203 202 201 199 199 201 201 199 198 200 201 207 215 217 218 221 222 221 221 221 221 222 224 229 238 249 266 282 291 297 304 310 314 318 322 326 329 333 336 340 345 347 347 349
165 167 169 165 157 155 159 165 171 175 177 177 176 178 181 182 181 180 179 176 172 171 173 175 175 176 177 179 180 181 183 183 182 181 184 192 199 202 204 206 208 209 210 211 211 209 206 205 204 205 206 205 209 216 220 224 232 232 229 227 225 227 232 234 238 246 256 266 275 280 286 296 304 307 312 317 320 325 330 333 335 339 342 345 348
164 165 166 163 161 164 168 171 171 173 175 176 174 175 177 179 180 180 179 177 173 170 171 174 176 178 179 179 179 180 181 182 182 181 181 184 191 199 205 209 211 213 214 216 219 218 213 209 208 210 213 214 219 227 234 236 232 228 227 225 224 228 236 242 246 252 258 262 267 273 280 289 296 299 304 312 317 320 325 329 330 331 333 338 343